 day,  time,  air_temp(C),  RH(%),  ground_temp10cm(C),  ground_temp20cm(C),  ground_temp40cm(C),  precipitation(mm/h),  Solar_Radiation(MJ/m2h),  lack, 
 01/10/01, 01:00,  17.7,  77,  13.9,  14.7,  15.9,   0.0,  0.00, 
 01/10/01, 02:00,  17.4,  79,  14.0,  14.7,  15.9,   0.0,  0.00, 
 01/10/01, 03:00,  16.9,  82,  14.0,  14.7,  15.9,   0.0,  0.00, 
 01/10/01, 04:00,  16.3,  85,  14.1,  14.7,  15.9,   0.0,  0.00, 
 01/10/01, 05:00,  16.5,  86,  14.2,  14.7,  15.8,   0.0,  0.00, 
 01/10/01, 06:00,  15.7,  97,  14.2,  14.7,  15.8,   0.5,  0.00, 
 01/10/01, 07:00,  16.0,  99,  14.3,  14.7,  15.8,   0.5,  0.00, 
 01/10/01, 08:00,  16.4,  99,  14.4,  14.7,  15.8,   1.0,  0.11, 
 01/10/01, 09:00,  16.1,  99,  14.5,  14.7,  15.8,   2.5,  0.17, 
 01/10/01, 10:00,  16.3,  99,  14.7,  14.7,  15.8,   6.5,  0.22, 
 01/10/01, 11:00,  16.5,  99,  14.9,  14.7,  15.7,   7.0,  0.24, 
 01/10/01, 12:00,  17.0,  99,  15.1,  14.8,  15.7,   2.0,  0.26, 
 01/10/01, 13:00,  17.4,  99,  15.3,  14.8,  15.7,   1.0,  0.32, 
 01/10/01, 14:00,  17.2,  99,  15.5,  14.9,  15.7,   0.0,  0.21, 
 01/10/01, 15:00,  17.3,  99,  15.6,  15.0,  15.6,   0.0,  0.49, 
 01/10/01, 16:00,  17.4,  99,  15.8,  15.0,  15.6,   0.0,  0.65, 
 01/10/01, 17:00,  16.9,  99,  16.0,  15.1,  15.6,   0.0,  0.17, 
 01/10/01, 18:00,  16.1,  99,  16.1,  15.2,  15.6,   0.0,  0.00, 
 01/10/01, 19:00,  15.6,  99,  16.1,  15.3,  15.6,   3.5,  0.00, 
 01/10/01, 20:00,  14.5,  99,  16.0,  15.4,  15.6,   0.5,  0.00, 
 01/10/01, 21:00,  13.8,  99,  15.9,  15.4,  15.6,   0.0,  0.00, 
 01/10/01, 22:00,  13.1,  99,  15.8,  15.5,  15.6,   0.0,  0.00, 
 01/10/01, 23:00,  12.7,  99,  15.7,  15.5,  15.7,   0.0,  0.00, 
 01/10/02, 00:00,  11.8,  99,  15.5,  15.5,  15.7,   0.0,  0.00, 
 01/10/02, 01:00,  10.8,  99,  15.4,  15.5,  15.7,   0.0,  0.00, 
 01/10/02, 02:00,  11.1,  99,  15.1,  15.5,  15.7,   0.0,  0.00, 
 01/10/02, 03:00,  11.0,  99,  14.9,  15.5,  15.7,   0.0,  0.00, 
 01/10/02, 04:00,  10.9,  99,  14.7,  15.5,  15.7,   2.5,  0.00, 
 01/10/02, 05:00,  10.9,  99,  14.5,  15.4,  15.7,   2.5,  0.00, 
 01/10/02, 06:00,  10.7,  97,  14.4,  15.3,  15.7,   0.0,  0.00, 
 01/10/02, 07:00,  10.1,  99,  14.3,  15.3,  15.8,   0.0,  0.00, 
 01/10/02, 08:00,  10.1,  99,  14.2,  15.2,  15.8,   1.0,  0.09, 
 01/10/02, 09:00,  10.1,  99,  14.1,  15.1,  15.8,   1.0,  0.33, 
 01/10/02, 10:00,   9.0,  99,  14.0,  15.1,  15.8,   0.0,  0.29, 
 01/10/02, 11:00,   9.9,  95,  14.0,  15.0,  15.8,   0.0,  0.90, 
 01/10/02, 12:00,  10.4,  90,  14.1,  15.0,  15.8,   0.0,  0.65, 
 01/10/02, 13:00,  10.0,  83,  14.3,  14.9,  15.8,   0.0,  1.22, 
 01/10/02, 14:00,   9.7,  85,  14.5,  14.9,  15.8,   0.0,  1.11, 
 01/10/02, 15:00,   9.0,  89,  14.6,  14.9,  15.8,   0.0,  0.33, 
 01/10/02, 16:00,   8.9,  90,  14.5,  14.9,  15.8,   0.0,  0.17, 
 01/10/02, 17:00,   8.4,  91,  14.3,  14.9,  15.8,   0.5,  0.14, 
 01/10/02, 18:00,   8.2,  83,  14.1,  14.9,  15.8,   0.0,  0.00, 
 01/10/02, 19:00,   7.6,  92,  13.9,  14.9,  15.7,   0.0,  0.00, 
 01/10/02, 20:00,   7.7,  89,  13.7,  14.9,  15.7,   0.0,  0.00, 
 01/10/02, 21:00,   7.7,  88,  13.4,  14.8,  15.7,   0.0,  0.00, 
 01/10/02, 22:00,   7.9,  87,  13.2,  14.8,  15.7,   0.0,  0.00, 
 01/10/02, 23:00,   7.3,  96,  13.0,  14.7,  15.7,   0.0,  0.00, 
 01/10/03, 00:00,   8.2,  89,  12.8,  14.6,  15.7,   0.0,  0.00, 
 01/10/03, 01:00,   7.8,  94,  12.6,  14.5,  15.7,   0.0,  0.00, 
 01/10/03, 02:00,   7.0,  93,  12.4,  14.4,  15.7,   0.0,  0.00, 
 01/10/03, 03:00,   7.0,  91,  12.3,  14.3,  15.7,   0.0,  0.00, 
 01/10/03, 04:00,   7.3,  97,  12.0,  14.3,  15.7,   0.0,  0.00, 
 01/10/03, 05:00,   6.0,  97,  11.9,  14.2,  15.7,   0.0,  0.00, 
 01/10/03, 06:00,   5.1,  99,  11.6,  14.1,  15.7,   0.0,  0.00, 
 01/10/03, 07:00,   7.6,  93,  11.5,  14.0,  15.6,   0.0,  0.46, 
 01/10/03, 08:00,   8.9,  85,  11.5,  13.9,  15.6,   0.0,  1.41, 
 01/10/03, 09:00,  10.4,  84,  11.6,  13.8,  15.6,   0.0,  1.83, 
 01/10/03, 10:00,  11.6,  84,  11.8,  13.7,  15.6,   0.0,  2.29, 
 01/10/03, 11:00,  13.1,  80,  12.2,  13.6,  15.6,   0.0,  2.80, 
 01/10/03, 12:00,  13.9,  79,  12.8,  13.6,  15.6,   0.0,  2.89, 
 01/10/03, 13:00,  14.5,  78,  13.7,  13.6,  15.6,   0.0,  2.84, 
 01/10/03, 14:00,  14.3,  79,  14.7,  13.7,  15.5,   0.0,  2.48, 
 01/10/03, 15:00,  13.6,  83,  15.1,  13.8,  15.5,   0.0,  1.94, 
 01/10/03, 16:00,  12.6,  86,  15.3,  14.0,  15.4,   0.0,  1.21, 
 01/10/03, 17:00,  11.0,  95,  15.2,  14.2,  15.5,   0.0,  0.38, 
 01/10/03, 18:00,  10.1,  99,  15.1,  14.4,  15.4,   0.0,  0.05, 
 01/10/03, 19:00,   8.4,  99,  14.8,  14.5,  15.4,   0.0,  0.00, 
 01/10/03, 20:00,   9.2,  99,  14.5,  14.6,  15.4,   0.0,  0.00, 
 01/10/03, 21:00,   9.0,  98,  14.2,  14.6,  15.4,   0.0,  0.00, 
 01/10/03, 22:00,  10.9,  79,  13.9,  14.6,  15.4,   0.0,  0.00, 
 01/10/03, 23:00,  10.5,  85,  13.7,  14.6,  15.3,   0.0,  0.00, 
 01/10/04, 00:00,   9.3,  92,  13.4,  14.6,  15.3,   0.0,  0.00, 
 01/10/04, 01:00,   8.6,  91,  13.2,  14.5,  15.4,   0.0,  0.00, 
 01/10/04, 02:00,  10.3,  82,  13.0,  14.4,  15.4,   0.0,  0.00, 
 01/10/04, 03:00,  10.0,  84,  12.8,  14.4,  15.4,   0.0,  0.00, 
 01/10/04, 04:00,   9.5,  88,  12.5,  14.3,  15.4,   0.0,  0.00, 
 01/10/04, 05:00,   8.3,  99,  12.4,  14.2,  15.4,   0.0,  0.00, 
 01/10/04, 06:00,   9.4,  94,  12.1,  14.1,  15.4,   0.0,  0.00, 
 01/10/04, 07:00,  11.9,  82,  12.0,  14.0,  15.3,   0.0,  0.33, 
 01/10/04, 08:00,  13.3,  74,  12.0,  14.0,  15.3,   0.0,  0.91, 
 01/10/04, 09:00,  14.6,  65,  12.4,  13.9,  15.3,   0.0,  1.27, 
 01/10/04, 10:00,  16.1,  65,  12.7,  13.8,  15.3,   0.0,  2.18, 
 01/10/04, 11:00,  17.7,  65,  13.1,  13.8,  15.3,   0.0,  2.50, 
 01/10/04, 12:00,  16.9,  67,  13.7,  13.8,  15.4,   0.0,  2.50, 
 01/10/04, 13:00,  16.8,  72,  14.5,  13.9,  15.3,   0.0,  1.53, 
 01/10/04, 14:00,  14.9,  82,  15.0,  14.0,  15.3,   0.0,  0.39, 
 01/10/04, 15:00,  13.8,  90,  15.1,  14.1,  15.3,   0.0,  0.19, 
 01/10/04, 16:00,  12.6,  99,  15.2,  14.2,  15.3,   0.0,  0.02, 
 01/10/04, 17:00,  12.4,  99,  15.1,  14.4,  15.3,   0.0,  0.00, 
 01/10/04, 18:00,  12.4,  99,  15.0,  14.5,  15.2,   0.0,  0.00, 
 01/10/04, 19:00,  12.2,  99,  14.9,  14.6,  15.3,   0.0,  0.00, 
 01/10/04, 20:00,  11.9,  99,  14.8,  14.6,  15.2,   0.0,  0.00, 
 01/10/04, 21:00,  11.8,  99,  14.7,  14.7,  15.3,   0.0,  0.00, 
 01/10/04, 22:00,  11.0,  99,  14.5,  14.7,  15.2,   2.5,  0.00, 
 01/10/04, 23:00,  11.1,  99,  14.3,  14.7,  15.3,   6.5,  0.00, 
 01/10/05, 00:00,  11.7,  99,  14.2,  14.7,  15.3,   1.0,  0.00, 
 01/10/05, 01:00,  11.9,  99,  14.1,  14.7,  15.3,   0.0,  0.00, 
 01/10/05, 02:00,  11.9,  99,  14.0,  14.6,  15.3,   0.5,  0.00, 
 01/10/05, 03:00,  11.8,  99,  14.0,  14.6,  15.3,   0.0,  0.00, 
 01/10/05, 04:00,  11.4,  99,  13.9,  14.6,  15.3,   3.5,  0.00, 
 01/10/05, 05:00,  11.4,  99,  13.8,  14.5,  15.3,   3.0,  0.00, 
 01/10/05, 06:00,  11.4,  99,  13.7,  14.5,  15.2,   1.0,  0.00, 
 01/10/05, 07:00,  11.7,  99,  13.7,  14.5,  15.2,   0.5,  0.09, 
 01/10/05, 08:00,  11.9,  99,  13.7,  14.4,  15.3,   0.0,  0.29, 
 01/10/05, 09:00,  12.5,  99,  13.8,  14.4,  15.2,   0.0,  0.41, 
 01/10/05, 10:00,  12.5,  99,  13.9,  14.4,  15.2,   0.5,  0.33, 
 01/10/05, 11:00,  15.1,  91,  14.1,  14.4,  15.2,   0.0,  1.04, 
 01/10/05, 12:00,  15.0,  87,  14.4,  14.4,  15.2,   0.0,  1.37, 
 01/10/05, 13:00,  15.6,  87,  14.9,  14.4,  15.2,   0.5,  1.37, 
 01/10/05, 14:00,  16.3,  83,  15.3,  14.4,  15.3,   0.0,  1.06, 
 01/10/05, 15:00,  15.3,  90,  15.5,  14.5,  15.3,   0.0,  0.83, 
 01/10/05, 16:00,  15.2,  89,  15.7,  14.6,  15.3,   0.0,  0.96, 
 01/10/05, 17:00,  14.0,  98,  15.8,  14.7,  15.3,   0.0,  0.24, 
 01/10/05, 18:00,  13.3,  95,  15.7,  14.8,  15.3,   0.0,  0.02, 
 01/10/05, 19:00,  12.4,  97,  15.5,  14.9,  15.3,   0.0,  0.00, 
 01/10/05, 20:00,  12.3,  94,  15.2,  15.0,  15.3,   0.0,  0.00, 
 01/10/05, 21:00,  11.7,  98,  15.0,  15.0,  15.3,   0.0,  0.00, 
 01/10/05, 22:00,  11.2,  95,  14.9,  15.0,  15.2,   0.0,  0.00, 
 01/10/05, 23:00,  10.5,  93,  14.6,  15.0,  15.3,   0.0,  0.00, 
 01/10/06, 00:00,  10.7,  86,  14.4,  15.0,  15.2,   0.0,  0.00, 
 01/10/06, 01:00,   9.5,  99,  14.2,  14.9,  15.2,   0.0,  0.00, 
 01/10/06, 02:00,   9.0,  99,  13.9,  14.9,  15.3,   0.0,  0.00, 
 01/10/06, 03:00,   8.4,  99,  13.7,  14.8,  15.3,   0.0,  0.00, 
 01/10/06, 04:00,   8.0,  99,  13.5,  14.8,  15.3,   0.0,  0.00, 
 01/10/06, 05:00,   6.6,  99,  13.3,  14.7,  15.3,   0.0,  0.00, 
 01/10/06, 06:00,   7.0,  99,  13.0,  14.6,  15.3,   0.0,  0.00, 
 01/10/06, 07:00,   7.6,  99,  12.8,  14.5,  15.3,   0.0,  0.28, 
 01/10/06, 08:00,   9.3,  88,  12.5,  14.4,  15.3,   0.0,  1.06, 
 01/10/06, 09:00,  10.9,  88,  12.6,  14.3,  15.3,   0.0,  1.75, 
 01/10/06, 10:00,  11.0,  91,  12.6,  14.2,  15.3,   0.0,  1.79, 
 01/10/06, 11:00,  11.5,  83,  13.0,  14.2,  15.3,   0.0,  1.34, 
 01/10/06, 12:00,  13.4,  75,  13.4,  14.1,  15.3,   0.0,  1.97, 
 01/10/06, 13:00,  14.1,  71,  13.9,  14.1,  15.3,   0.0,  2.17, 
 01/10/06, 14:00,  14.3,  68,  14.5,  14.1,  15.3,   0.0,  2.36, 
 01/10/06, 15:00,  13.5,  72,  14.9,  14.2,  15.3,   0.0,  1.87, 
 01/10/06, 16:00,  12.5,  81,  15.0,  14.3,  15.3,   0.0,  1.17, 
 01/10/06, 17:00,  11.3,  89,  14.9,  14.4,  15.2,   0.0,  0.50, 
 01/10/06, 18:00,   8.9,  99,  14.7,  14.5,  15.3,   0.0,  0.03, 
 01/10/06, 19:00,   8.9,  99,  14.4,  14.6,  15.3,   0.0,  0.00, 
 01/10/06, 20:00,   9.3,  99,  14.2,  14.6,  15.2,   0.0,  0.00, 
 01/10/06, 21:00,   8.9,  99,  14.0,  14.6,  15.3,   0.0,  0.00, 
 01/10/06, 22:00,   8.6,  99,  13.9,  14.6,  15.3,   0.0,  0.00, 
 01/10/06, 23:00,   8.3,  99,  13.8,  14.6,  15.3,   0.0,  0.00, 
 01/10/07, 00:00,   7.7,  99,  13.6,  14.5,  15.2,   0.0,  0.00, 
 01/10/07, 01:00,   6.9,  99,  13.5,  14.5,  15.2,   0.0,  0.00, 
 01/10/07, 02:00,   6.2,  99,  13.3,  14.4,  15.2,   0.0,  0.00, 
 01/10/07, 03:00,   5.9,  99,  13.0,  14.4,  15.2,   0.0,  0.00, 
 01/10/07, 04:00,   7.3,  98,  12.8,  14.3,  15.2,   0.0,  0.00, 
 01/10/07, 05:00,   7.5,  97,  12.5,  14.2,  15.2,   0.0,  0.00, 
 01/10/07, 06:00,   7.5,  95,  12.4,  14.2,  15.2,   0.0,  0.00, 
 01/10/07, 07:00,   8.4,  93,  12.1,  14.1,  15.2,   0.0,  0.14, 
 01/10/07, 08:00,  11.9,  89,  12.2,  14.0,  15.2,   0.0,  0.92, 
 01/10/07, 09:00,  13.7,  80,  12.2,  13.9,  15.3,   0.0,  1.56, 
 01/10/07, 10:00,  14.2,  81,  12.4,  13.8,  15.1,   0.0,  2.24, 
 01/10/07, 11:00,  13.9,  83,  12.8,  13.8,  15.2,   0.0,  2.11, 
 01/10/07, 12:00,  16.8,  69,  13.5,  13.7,  15.2,   0.0,  2.81, 
 01/10/07, 13:00,  16.3,  71,  14.3,  13.8,  15.2,   0.0,  2.33, 
 01/10/07, 14:00,  17.6,  66,  15.0,  13.8,  15.2,   0.0,  2.48, 
 01/10/07, 15:00,  16.7,  69,  15.6,  14.0,  15.2,   0.0,  1.81, 
 01/10/07, 16:00,  15.3,  74,  15.9,  14.2,  15.2,   0.0,  0.45, 
 01/10/07, 17:00,  13.7,  89,  15.9,  14.3,  15.2,   0.0,  0.03, 
 01/10/07, 18:00,  12.4,  95,  15.8,  14.5,  15.1,   0.0,  0.00, 
 01/10/07, 19:00,  11.7,  99,  15.6,  14.7,  15.0,   0.0,  0.00, 
 01/10/07, 20:00,  11.4,  99,  15.4,  14.8,  15.1,   0.0,  0.00, 
 01/10/07, 21:00,  11.0,  99,  15.2,  14.8,  15.0,   0.0,  0.00, 
 01/10/07, 22:00,  10.9,  99,  15.0,  14.9,  15.0,   0.0,  0.00, 
 01/10/07, 23:00,  10.8,  99,  14.8,  14.9,  15.0,   0.0,  0.00, 
 01/10/08, 00:00,  10.4,  99,  14.6,  14.9,  15.0,   0.0,  0.00, 
 01/10/08, 01:00,  10.1,  99,  14.5,  14.8,  15.1,   0.0,  0.00, 
 01/10/08, 02:00,   9.6,  99,  14.3,  14.8,  15.1,   0.0,  0.00, 
 01/10/08, 03:00,   8.9,  99,  14.1,  14.8,  15.1,   0.0,  0.00, 
 01/10/08, 04:00,  10.1,  99,  13.9,  14.8,  15.1,   0.0,  0.00, 
 01/10/08, 05:00,   9.8,  97,  13.7,  14.7,  15.1,   0.0,  0.00, 
 01/10/08, 06:00,  10.1,  94,  13.6,  14.6,  15.1,   0.0,  0.00, 
 01/10/08, 07:00,  10.4,  91,  13.5,  14.6,  15.1,   0.0,  0.15, 
 01/10/08, 08:00,  11.4,  93,  13.4,  14.5,  15.1,   0.0,  0.42, 
 01/10/08, 09:00,  12.2,  89,  13.5,  14.5,  15.2,   0.0,  1.21, 
 01/10/08, 10:00,  13.7,  85,  13.7,  14.4,  15.1,   0.0,  1.71, 
 01/10/08, 11:00,  14.5,  80,  14.1,  14.4,  15.1,   0.0,  1.85, 
 01/10/08, 12:00,  15.8,  74,  14.5,  14.4,  15.2,   0.0,  1.83, 
 01/10/08, 13:00,  15.3,  77,  15.0,  14.4,  15.2,   0.0,  1.68, 
 01/10/08, 14:00,  15.1,  73,  15.5,  14.5,  15.2,   0.0,  1.17, 
 01/10/08, 15:00,  15.1,  62,  15.7,  14.6,  15.2,   0.0,  1.41, 
 01/10/08, 16:00,  14.2,  77,  15.8,  14.7,  15.2,   0.0,  1.17, 
 01/10/08, 17:00,  13.7,  85,  15.7,  14.8,  15.2,   0.0,  0.43, 
 01/10/08, 18:00,  11.4,  97,  15.5,  14.9,  15.2,   0.0,  0.01, 
 01/10/08, 19:00,  10.4,  99,  15.2,  14.9,  15.2,   0.0,  0.00, 
 01/10/08, 20:00,   9.8,  99,  14.9,  15.0,  15.1,   0.0,  0.00, 
 01/10/08, 21:00,   9.9,  99,  14.6,  15.0,  15.1,   0.0,  0.00, 
 01/10/08, 22:00,   8.9,  99,  14.4,  15.0,  15.1,   0.0,  0.00, 
 01/10/08, 23:00,   8.9,  99,  14.1,  14.9,  15.1,   0.0,  0.00, 
 01/10/09, 00:00,   8.9,  99,  13.8,  14.9,  15.1,   0.0,  0.00, 
 01/10/09, 01:00,   9.3,  99,  13.6,  14.8,  15.2,   0.0,  0.00, 
 01/10/09, 02:00,  10.3,  97,  13.4,  14.7,  15.2,   0.0,  0.00, 
 01/10/09, 03:00,  10.9,  89,  13.4,  14.7,  15.2,   0.0,  0.00, 
 01/10/09, 04:00,   9.1,  99,  13.3,  14.6,  15.2,   0.0,  0.00, 
 01/10/09, 05:00,   9.4,  97,  13.2,  14.5,  15.2,   0.0,  0.00, 
 01/10/09, 06:00,   9.6,  96,  13.1,  14.4,  15.2,   0.0,  0.00, 
 01/10/09, 07:00,  10.4,  93,  13.0,  14.4,  15.2,   0.0,  0.17, 
 01/10/09, 08:00,  13.6,  83,  12.9,  14.3,  15.2,   0.0,  0.90, 
 01/10/09, 09:00,  15.6,  74,  13.0,  14.2,  15.3,   0.0,  1.65, 
 01/10/09, 10:00,  16.7,  74,  13.2,  14.2,  15.3,   0.0,  2.21, 
 01/10/09, 11:00,  17.2,  75,  13.6,  14.1,  15.3,   0.0,  2.48, 
 01/10/09, 12:00,  16.6,  72,  14.3,  14.1,  15.3,   0.0,  1.80, 
 01/10/09, 13:00,  16.7,  72,  14.7,  14.2,  15.2,   0.0,  1.32, 
 01/10/09, 14:00,  17.5,  75,  14.8,  14.2,  15.2,   0.0,  1.30, 
 01/10/09, 15:00,  17.5,  80,  14.8,  14.3,  15.2,   0.0,  0.50, 
 01/10/09, 16:00,  14.5,  85,  15.0,  14.5,  15.2,   0.0,  0.10, 
 01/10/09, 17:00,  13.9,  95,  15.8,  14.6,  15.2,   0.0,  0.09, 
 01/10/09, 18:00,  13.4,  98,  15.7,  14.8,  15.2,   0.0,  0.00, 
 01/10/09, 19:00,  12.7,  99,  15.5,  14.9,  15.2,   0.0,  0.00, 
 01/10/09, 20:00,  12.5,  99,  15.4,  14.9,  15.1,   0.0,  0.00, 
 01/10/09, 21:00,  12.4,  99,  15.2,  15.0,  15.2,   0.0,  0.00, 
 01/10/09, 22:00,  12.3,  99,  15.1,  15.0,  15.1,   0.0,  0.00, 
 01/10/09, 23:00,  12.4,  99,  15.0,  15.0,  15.1,   0.0,  0.00, 
 01/10/10, 00:00,  12.2,  99,  14.8,  15.0,  15.1,   0.0,  0.00, 
 01/10/10, 01:00,  11.9,  99,  14.7,  15.0,  15.1,   0.0,  0.00, 
 01/10/10, 02:00,  11.7,  99,  14.6,  15.0,  15.1,   0.5,  0.00, 
 01/10/10, 03:00,  12.2,  94,  14.5,  15.0,  15.1,   1.0,  0.00, 
 01/10/10, 04:00,  11.2,  99,  14.4,  14.9,  15.3,   1.0,  0.00, 
 01/10/10, 05:00,  12.6,  87,  14.3,  14.9,  15.2,   1.0,  0.00, 
 01/10/10, 06:00,  14.8,  76,  14.1,  14.9,  15.3,   1.0,  0.00, 
 01/10/10, 07:00,  12.2,  98,  14.1,  14.8,  15.2,   0.5,  0.00, 
 01/10/10, 08:00,  13.7,  93,  14.0,  14.8,  15.2,   4.5,  0.00, 
 01/10/10, 09:00,  12.1,  98,  13.9,  14.7,  15.2,   4.0,  0.12, 
 01/10/10, 10:00,  11.8,  99,  13.9,  14.6,  15.3,   2.5,  0.24, 
 01/10/10, 11:00,  13.0,  97,  13.9,  14.6,  15.2,   4.0,  0.19, 
 01/10/10, 12:00,  11.8,  99,  13.9,  14.5,  15.2,   2.5,  0.34, 
 01/10/10, 13:00,  12.4,  99,  13.9,  14.5,  15.1,   1.5,  0.42, 
 01/10/10, 14:00,  12.8,  99,  14.1,  14.4,  15.1,   1.0,  0.52, 
 01/10/10, 15:00,  17.5,  75,  14.2,  14.4,  15.2,   0.0,  0.77, 
 01/10/10, 16:00,  18.1,  73,  14.5,  14.4,  15.1,   0.0,  0.59, 
 01/10/10, 17:00,  16.5,  84,  14.7,  14.4,  15.2,   0.0,  0.32, 
 01/10/10, 18:00,  15.4,  87,  14.8,  14.5,  15.2,   0.0,  0.00, 
 01/10/10, 19:00,  16.0,  81,  14.7,  14.5,  15.1,   0.0,  0.00, 
 01/10/10, 20:00,  14.0,  95,  14.6,  14.6,  15.2,   0.0,  0.00, 
 01/10/10, 21:00,  14.2,  92,  14.5,  14.6,  15.1,   0.0,  0.00, 
 01/10/10, 22:00,  12.3,  99,  14.4,  14.6,  15.2,   0.0,  0.00, 
 01/10/10, 23:00,  11.4,  99,  14.3,  14.6,  15.2,   0.0,  0.00, 
 01/10/11, 00:00,  11.6,  99,  14.1,  14.6,  15.1,   0.0,  0.00, 
 01/10/11, 01:00,  11.0,  99,  13.9,  14.6,  15.2,   0.0,  0.00, 
 01/10/11, 02:00,  11.8,  98,  13.7,  14.6,  15.2,   0.0,  0.00, 
 01/10/11, 03:00,  12.2,  95,  13.6,  14.5,  15.2,   0.0,  0.00, 
 01/10/11, 04:00,  12.7,  83,  13.5,  14.5,  15.2,   0.0,  0.00, 
 01/10/11, 05:00,  10.7,  96,  13.2,  14.4,  15.1,   0.0,  0.00, 
 01/10/11, 06:00,  10.4,  98,  13.1,  14.3,  15.1,   0.0,  0.00, 
 01/10/11, 07:00,  11.5,  97,  13.0,  14.3,  15.1,   0.0,  0.08, 
 01/10/11, 08:00,  12.6,  97,  13.1,  14.2,  15.2,   0.0,  0.35, 
 01/10/11, 09:00,  13.5,  89,  13.2,  14.2,  15.1,   0.0,  0.88, 
 01/10/11, 10:00,  13.7,  79,  13.5,  14.1,  15.2,   0.0,  0.83, 
 01/10/11, 11:00,  14.8,  66,  13.7,  14.1,  15.2,   0.0,  1.92, 
 01/10/11, 12:00,  15.8,  67,  14.2,  14.1,  15.1,   0.0,  2.48, 
 01/10/11, 13:00,  14.7,  68,  14.8,  14.1,  15.1,   0.0,  1.90, 
 01/10/11, 14:00,  14.7,  72,  15.4,  14.2,  15.1,   0.0,  1.03, 
 01/10/11, 15:00,  14.4,  76,  15.6,  14.4,  15.1,   0.0,  1.10, 
 01/10/11, 16:00,  13.7,  84,  15.6,  14.4,  15.1,   0.0,  0.41, 
 01/10/11, 17:00,  12.4,  86,  15.6,  14.6,  15.1,   0.0,  0.31, 
 01/10/11, 18:00,  11.8,  92,  15.3,  14.7,  15.1,   0.0,  0.00, 
 01/10/11, 19:00,  10.4,  98,  15.2,  14.7,  15.1,   0.0,  0.00, 
 01/10/11, 20:00,  10.1,  98,  14.8,  14.8,  15.1,   0.0,  0.00, 
 01/10/11, 21:00,  10.0,  99,  14.6,  14.8,  15.1,   0.0,  0.00, 
 01/10/11, 22:00,  10.4,  96,  14.4,  14.8,  15.1,   0.0,  0.00, 
 01/10/11, 23:00,  10.0,  94,  14.2,  14.8,  15.1,   0.0,  0.00, 
 01/10/12, 00:00,   9.9,  95,  14.1,  14.7,  15.0,   0.0,  0.00, 
 01/10/12, 01:00,  10.2,  92,  13.9,  14.7,  15.1,   0.0,  0.00, 
 01/10/12, 02:00,   9.2,  99,  13.8,  14.6,  15.1,   0.0,  0.00, 
 01/10/12, 03:00,   8.1,  98,  13.6,  14.6,  15.0,   0.0,  0.00, 
 01/10/12, 04:00,   8.6,  93,  13.4,  14.5,  15.0,   0.0,  0.00, 
 01/10/12, 05:00,   8.7,  90,  13.2,  14.5,  15.1,   0.0,  0.00, 
 01/10/12, 06:00,   8.6,  95,  13.0,  14.4,  15.0,   0.0,  0.00, 
 01/10/12, 07:00,   9.5,  87,  12.9,  14.3,  15.0,   0.0,  0.13, 
 01/10/12, 08:00,  10.6,  81,  12.8,  14.2,  15.0,   0.0,  0.52, 
 01/10/12, 09:00,  10.5,  87,  12.9,  14.2,  15.0,   0.0,  1.14, 
 01/10/12, 10:00,  11.4,  87,  13.2,  14.1,  15.0,   0.0,  1.24, 
 01/10/12, 11:00,  11.6,  85,  13.4,  14.1,  15.1,   0.0,  1.03, 
 01/10/12, 12:00,  12.8,  79,  13.6,  14.0,  15.1,   0.0,  1.38, 
 01/10/12, 13:00,  12.8,  77,  14.0,  14.0,  15.1,   0.0,  1.07, 
 01/10/12, 14:00,  11.8,  84,  14.4,  14.1,  15.1,   0.0,  0.75, 
 01/10/12, 15:00,   9.7,  99,  14.4,  14.1,  15.1,   0.0,  0.15, 
 01/10/12, 16:00,   9.5,  99,  14.3,  14.2,  15.1,   0.0,  0.22, 
 01/10/12, 17:00,   9.2,  99,  14.2,  14.2,  15.1,   0.0,  0.06, 
 01/10/12, 18:00,   8.8,  99,  14.1,  14.3,  15.1,   0.0,  0.00, 
 01/10/12, 19:00,   8.7,  99,  13.9,  14.3,  15.0,   0.0,  0.00, 
 01/10/12, 20:00,   8.1,  97,  13.7,  14.3,  15.0,   0.0,  0.00, 
 01/10/12, 21:00,   8.4,  88,  13.5,  14.3,  14.9,   0.0,  0.00, 
 01/10/12, 22:00,   8.1,  89,  13.2,  14.2,  14.9,   0.0,  0.00, 
 01/10/12, 23:00,   8.1,  89,  12.9,  14.2,  14.9,   0.0,  0.00, 
 01/10/13, 00:00,   7.9,  95,  12.7,  14.1,  14.9,   0.0,  0.00, 
 01/10/13, 01:00,   8.0,  92,  12.6,  14.1,  14.9,   0.0,  0.00, 
 01/10/13, 02:00,   8.1,  91,  12.4,  14.0,  14.9,   0.0,  0.00, 
 01/10/13, 03:00,   7.7,  95,  12.3,  13.9,  14.9,   0.0,  0.00, 
 01/10/13, 04:00,   8.0,  95,  12.2,  13.8,  14.9,   0.0,  0.00, 
 01/10/13, 05:00,   7.6,  95,  12.0,  13.7,  14.9,   0.0,  0.00, 
 01/10/13, 06:00,   8.1,  89,  12.0,  13.7,  14.9,   0.0,  0.00, 
 01/10/13, 07:00,   8.1,  92,  11.8,  13.6,  14.9,   0.0,  0.06, 
 01/10/13, 08:00,   8.6,  92,  11.8,  13.5,  14.9,   0.0,  0.21, 
 01/10/13, 09:00,   9.6,  86,  11.9,  13.5,  14.9,   0.0,  0.61, 
 01/10/13, 10:00,  11.2,  79,  12.1,  13.4,  14.8,   0.0,  1.22, 
 01/10/13, 11:00,   9.9,  95,  12.4,  13.4,  14.8,   0.0,  0.78, 
 01/10/13, 12:00,   9.1,  99,  12.6,  13.3,  14.8,   0.0,  0.50, 
 01/10/13, 13:00,  10.8,  86,  12.8,  13.3,  14.8,   0.0,  1.26, 
 01/10/13, 14:00,  10.1,  84,  13.2,  13.5,  14.9,   0.0,  1.19, 
 01/10/13, 15:00,  11.3,  75,  13.4,  13.4,  14.8,   0.0,  1.64, 
 01/10/13, 16:00,   9.6,  81,  13.5,  13.5,  14.7,   0.0,  1.10, 
 01/10/13, 17:00,   8.4,  86,  13.4,  13.5,  14.7,   0.0,  0.29, 
 01/10/13, 18:00,   7.2,  94,  13.2,  13.6,  14.7,   0.0,  0.00, 
 01/10/13, 19:00,   6.2,  97,  12.9,  13.6,  14.7,   0.0,  0.00, 
 01/10/13, 20:00,   5.6,  99,  12.5,  13.6,  14.7,   0.0,  0.00, 
 01/10/13, 21:00,   4.7,  97,  12.2,  13.6,  14.7,   0.0,  0.00, 
 01/10/13, 22:00,   5.5,  76,  11.9,  13.5,  14.6,   0.0,  0.00, 
 01/10/13, 23:00,   5.6,  75,  11.6,  13.5,  14.6,   0.0,  0.00, 
 01/10/14, 00:00,   8.0,  50,  11.3,  13.4,  14.6,   0.0,  0.00, 
 01/10/14, 01:00,   5.9,  65,  11.1,  13.3,  14.6,   0.0,  0.00, 
 01/10/14, 02:00,   7.1,  55,  10.7,  13.2,  14.6,   0.0,  0.00, 
 01/10/14, 03:00,   3.8,  76,  10.6,  13.1,  14.6,   0.0,  0.00, 
 01/10/14, 04:00,   3.0,  80,  10.4,  13.0,  14.6,   0.0,  0.00, 
 01/10/14, 05:00,   5.1,  66,  10.2,  12.8,  14.6,   0.0,  0.00, 
 01/10/14, 06:00,   2.1,  84,   9.9,  12.7,  14.6,   0.0,  0.00, 
 01/10/14, 07:00,   3.3,  81,   9.7,  12.6,  14.5,   0.0,  0.20, 
 01/10/14, 08:00,   8.3,  56,   9.6,  12.5,  14.5,   0.0,  0.81, 
 01/10/14, 09:00,   8.2,  66,   9.7,  12.4,  14.5,   0.0,  1.04, 
 01/10/14, 10:00,  10.5,  67,  10.0,  12.3,  14.5,   0.0,  1.58, 
 01/10/14, 11:00,  12.4,  62,  10.4,  12.2,  14.5,   0.0,  2.18, 
 01/10/14, 12:00,  11.1,  64,  11.0,  12.1,  14.5,   0.0,  1.88, 
 01/10/14, 13:00,  12.5,  61,  11.6,  12.1,  14.5,   0.0,  1.87, 
 01/10/14, 14:00,  12.0,  64,  12.1,  12.2,  14.5,   0.0,  1.67, 
 01/10/14, 15:00,  10.9,  68,  12.6,  12.3,  14.4,   0.0,  1.03, 
 01/10/14, 16:00,  10.6,  74,  12.7,  12.4,  14.4,   0.0,  1.11, 
 01/10/14, 17:00,   9.0,  77,  12.7,  12.5,  14.4,   0.0,  0.41, 
 01/10/14, 18:00,   6.3,  94,  12.5,  12.6,  14.4,   0.0,  0.00, 
 01/10/14, 19:00,   6.1,  95,  12.2,  12.7,  14.2,   0.0,  0.00, 
 01/10/14, 20:00,   4.9,  99,  11.8,  12.7,  14.3,   0.0,  0.00, 
 01/10/14, 21:00,   4.4,  99,  11.5,  12.7,  14.3,   0.0,  0.00, 
 01/10/14, 22:00,   4.2,  99,  11.2,  12.7,  14.2,   0.0,  0.00, 
 01/10/14, 23:00,   4.1,  99,  11.0,  12.7,  14.2,   0.0,  0.00, 
 01/10/15, 00:00,   3.7,  99,  10.7,  12.6,  14.3,   0.0,  0.00, 
 01/10/15, 01:00,   3.1,  99,  10.4,  12.5,  14.1,   0.0,  0.00, 
 01/10/15, 02:00,   2.7,  96,  10.2,  12.5,  14.1,   0.0,  0.00, 
 01/10/15, 03:00,   3.4,  92,   9.9,  12.4,  14.1,   0.0,  0.00, 
 01/10/15, 04:00,   3.1,  91,   9.7,  12.3,  14.1,   0.0,  0.00, 
 01/10/15, 05:00,   2.1,  93,   9.3,  12.1,  14.1,   0.0,  0.00, 
 01/10/15, 06:00,   3.6,  68,   9.2,  12.0,  14.1,   0.0,  0.00, 
 01/10/15, 07:00,   3.5,  76,   9.0,  11.9,  14.1,   0.0,  0.19, 
 01/10/15, 08:00,   9.6,  57,   8.9,  11.8,  14.1,   0.0,  1.00, 
 01/10/15, 09:00,  12.2,  51,   8.9,  11.7,  14.0,   0.0,  1.73, 
 01/10/15, 10:00,  13.1,  56,   9.0,  11.6,  14.1,   0.0,  2.26, 
 01/10/15, 11:00,  14.3,  53,   9.5,  11.5,  14.1,   0.0,  2.65, 
 01/10/15, 12:00,  15.7,  56,  10.2,  11.5,  14.1,   0.0,  2.74, 
 01/10/15, 13:00,  16.1,  45,  11.2,  11.5,  14.0,   0.0,  2.65, 
 01/10/15, 14:00,  16.9,  29,  12.3,  11.5,  14.0,   0.0,  2.31, 
 01/10/15, 15:00,  15.9,  29,  13.0,  11.7,  14.0,   0.0,  1.80, 
 01/10/15, 16:00,  14.9,  45,  13.1,  11.9,  14.0,   0.0,  1.11, 
 01/10/15, 17:00,  13.1,  67,  12.9,  12.1,  13.9,   0.0,  0.21, 
 01/10/15, 18:00,  10.4,  89,  12.7,  12.2,  13.9,   0.0,  0.00, 
 01/10/15, 19:00,  10.4,  85,  12.5,  12.4,  13.8,   0.0,  0.00, 
 01/10/15, 20:00,  10.4,  89,  12.3,  12.5,  13.9,   0.0,  0.00, 
 01/10/15, 21:00,   8.8,  96,  12.1,  12.5,  13.9,   0.0,  0.00, 
 01/10/15, 22:00,   8.3,  98,  11.9,  12.5,  13.8,   0.0,  0.00, 
 01/10/15, 23:00,   8.9,  96,  11.7,  12.5,  13.8,   0.0,  0.00, 
 01/10/16, 00:00,   8.9,  98,  11.6,  12.5,  13.8,   0.0,  0.00, 
 01/10/16, 01:00,   9.3,  93,  11.4,  12.5,  13.8,   0.0,  0.00, 